Tracking 31027 objects as of 19-Jul-2025
HD Live streaming from Space Station
objects crossing your sky now

COSMOS 397 DEB

Track COSMOS 397 DEB now!
10-day predictions


NORAD ID: 5017
Int'l Code: 1971-015L
Perigee: 547.0 km
Apogee: 1,637.0 km
Inclination: 65.7 °
Period: 106.9 minutes
Semi major axis: 7462 km
RCS: 0.3524 m2 (medium)
Launch date: February 25, 1971
Source: Commonwealth of Independent States (former USSR) (CIS)
Launch site: TYURATAM MISSILE AND SPACE COMPLEX (TTMTR)

Note: This is SATELLITE DEBRIS
Your satellite tracking list
STARLINK-6351
Track 1 satellite(s)




NASA's NSSDC Master Catalog

Two Line Element Set (TLE):
1 05017U 71015L   25199.58726477  .00001334  00000-0  44111-3 0  9994
2 05017  65.7067 162.9606 0730312 279.9117  72.0313 13.46587258594618
Source of the keplerian elements: AFSPC